Stations météo

Publicité
Cap Ferret, France (7500): Température de l'air & dewpoint: 14.08.2017 19:00:00 - 20.08.2017 19:00:00 (CEST)Cap Ferret, France (7500): Vitesse du vent & gusts: 14.08.2017 19:00:00 - 20.08.2017 19:00:00 (CEST)Cap Ferret, France (7500): Direction du vent: 14.08.2017 19:00:00 - 20.08.2017 19:00:00 (CEST)Cap Ferret, France (7500): reduced air pressure: 14.08.2017 19:00:00 - 20.08.2017 19:00:00 (CEST)Cap Ferret, France (7500): visibility: 14.08.2017 19:00:00 - 20.08.2017 19:00:00 (CEST)Cap Ferret, France (7500): Ensoleillement: 14.08.2017 19:00:00 - 20.08.2017 19:00:00 (CEST)Cap Ferret, France (7500): Quantités de précipitations: 14.08.2017 19:00:00 - 20.08.2017 19:00:00 (CEST)
Date & Time tt [°C] td [°C] ff [km/h] ff [knt] fx [km/h] fx [knt] dd ppp [hPa] vv [km] sd [min] rr [mm]
20.08.2017 19:00:00 21,7 13,3 24 13 46 25 NNW 1024,5 - 60 0,0
20.08.2017 18:00:00 22,2 13,0 25 13 42 23 NNW 1025,0 - 60 0,0
20.08.2017 17:00:00 23,0 12,9 21 11 37 20 NNW 1025,3 15 60 0,0
20.08.2017 16:00:00 23,4 12,4 22 12 34 18 NNW 1025,9 - 60 0,0
20.08.2017 15:00:00 23,8 12,4 19 10 30 16 NW 1025,9 - 60 0,0
20.08.2017 14:00:00 23,2 12,2 18 10 30 16 WNW 1026,4 20 60 0,0
20.08.2017 13:00:00 23,1 11,8 11 6 24 13 NNE 1026,7 - 60 0,0
20.08.2017 12:00:00 22,1 11,2 9 5 21 11 NE 1027,0 - 60 0,0
20.08.2017 11:00:00 21,1 12,2 9 5 18 10 NE 1027,1 20 60 0,0
20.08.2017 10:00:00 19,2 12,2 9 5 19 10 NE 1026,8 - 60 0,0
20.08.2017 09:00:00 17,2 12,5 9 5 17 9 ENE 1026,8 - 60 0,0
20.08.2017 08:00:00 16,1 12,6 10 5 26 14 ENE 1026,3 15 19 0,0
20.08.2017 07:00:00 16,0 12,4 15 8 26 14 NE 1026,1 - 0 0,0
20.08.2017 06:00:00 16,1 12,8 11 6 27 15 NE 1025,8 - 0 0,0
20.08.2017 05:00:00 16,3 12,8 13 7 23 12 NNE 1025,9 15 0 0,0
20.08.2017 04:00:00 16,2 12,4 13 7 23 12 NE 1025,7 - 0 0,0
20.08.2017 03:00:00 16,3 11,7 13 7 20 11 NE 1025,7 - 0 0,0
20.08.2017 02:00:00 16,8 12,3 12 6 26 14 NNE 1025,9 15 0 0,0
20.08.2017 01:00:00 16,7 11,2 12 6 21 11 NNE 1025,9 - 0 0,0
20.08.2017 00:00:00 17,2 11,2 14 8 24 13 N 1026,1 - 0 0,0
19.08.2017 23:00:00 17,4 11,4 14 7 23 12 N 1025,7 15 0 0,0
19.08.2017 22:00:00 17,7 11,5 11 6 20 11 N 1025,2 - 0 0,0
19.08.2017 21:00:00 18,8 12,1 14 7 31 17 N 1024,4 - 49 0,0
19.08.2017 20:00:00 20,0 11,7 17 9 35 19 NNW 1024,5 15 60 0,0
19.08.2017 19:00:00 21,2 11,5 19 10 33 18 NNW 1024,4 - 60 0,0
19.08.2017 18:00:00 22,0 11,7 22 12 35 19 NW 1024,4 - 60 0,0
19.08.2017 17:00:00 22,9 12,8 22 12 38 20 NW 1024,7 15 60 0,0
19.08.2017 16:00:00 23,0 11,7 19 11 29 16 NW 1024,7 - 60 0,0
19.08.2017 15:00:00 23,0 11,4 18 10 29 16 NW 1024,9 - 60 0,0
19.08.2017 14:00:00 22,6 12,2 13 7 23 12 WNW 1025,0 20 48 0,0
19.08.2017 13:00:00 21,7 12,5 7 4 18 10 NE 1025,1 - 60 0,0
19.08.2017 12:00:00 20,9 12,3 9 5 21 12 NE 1025,0 - 60 0,0
19.08.2017 11:00:00 19,5 12,3 11 6 22 12 ENE 1025,0 20 55 0,0
19.08.2017 10:00:00 18,4 13,5 10 5 21 11 ENE 1024,7 - 37 0,0
19.08.2017 09:00:00 17,8 13,9 9 5 19 10 E 1024,6 - 21 0,0
19.08.2017 08:00:00 16,9 14,2 8 5 16 8 ENE 1024,1 15 0 0,0
19.08.2017 07:00:00 17,2 14,1 9 5 17 9 ENE 1023,5 - 0 0,0
19.08.2017 06:00:00 17,7 13,8 11 6 21 11 ENE 1023,1 - 0 0,0
19.08.2017 05:00:00 17,8 14,5 11 6 21 11 NE 1023,1 15 0 0,0
19.08.2017 04:00:00 18,1 14,4 10 5 19 10 N 1022,9 - 0 0,0
19.08.2017 03:00:00 18,4 14,7 11 6 23 12 N 1022,9 - 0 0,0
19.08.2017 02:00:00 18,6 15,1 10 5 25 13 N 1023,1 15 0 0,0
19.08.2017 01:00:00 19,2 15,7 16 9 25 13 NW 1023,1 - 0 0,0
19.08.2017 00:00:00 19,1 15,4 16 9 26 14 NW 1022,8 - 0 0,0
18.08.2017 23:00:00 19,3 15,4 15 8 26 14 NNW 1022,7 15 0 0,0
18.08.2017 22:00:00 19,7 16,0 18 10 30 16 NW 1022,4 - 0 0,0
18.08.2017 21:00:00 20,8 17,2 21 11 30 16 NW 1021,7 - 9 0,0
18.08.2017 20:00:00 21,7 17,7 15 8 21 11 W 1021,4 15 20 0,0
18.08.2017 19:00:00 22,6 17,5 11 6 22 12 W 1021,4 - 31 0,0
18.08.2017 18:00:00 23,9 18,1 17 9 25 13 W 1021,4 - 54 0,0
18.08.2017 17:00:00 23,6 18,3 16 9 22 12 W 1021,3 15 55 0,0
18.08.2017 16:00:00 22,4 18,6 12 7 19 11 WNW 1021,2 - 1 0,0
18.08.2017 15:00:00 21,5 17,5 14 8 21 12 NW 1020,9 - 0 0,2
18.08.2017 14:00:00 20,3 18,2 6 3 19 10 N 1020,7 15 0 0,0
18.08.2017 13:00:00 19,3 17,3 18 10 44 24 NNW 1020,5 5 0 0,4
18.08.2017 12:00:00 21,7 18,9 19 10 29 16 WSW 1019,5 - 0 0,0
18.08.2017 11:00:00 22,0 18,6 22 12 28 15 WSW 1020,0 15 4 0,0
18.08.2017 10:00:00 21,7 19,1 15 8 21 12 WSW 1019,4 - 7 0,0
18.08.2017 09:00:00 20,5 19,5 12 7 16 9 W 1019,1 - 8 0,0
18.08.2017 08:00:00 19,7 19,2 12 7 14 8 W 1018,8 15 9 0,0
18.08.2017 07:00:00 18,0 17,0 6 4 10 5 W 1018,6 - 0 0,0
18.08.2017 06:00:00 18,7 17,7 9 5 13 7 W 1018,4 - 0 0,0
18.08.2017 05:00:00 18,4 17,2 9 5 11 6 WNW 1018,7 15 0 0,0
18.08.2017 04:00:00 18,8 17,3 7 4 9 5 N 1018,5 - 0 0,0
18.08.2017 03:00:00 19,5 18,2 6 4 16 8 N 1019,0 - 0 0,0
18.08.2017 02:00:00 19,7 18,4 11 6 14 8 N 1019,3 15 0 0,0
18.08.2017 01:00:00 20,0 18,5 9 5 15 8 N 1019,3 - 0 0,0
18.08.2017 00:00:00 20,2 18,5 7 4 16 9 NNE 1019,4 - 0 0,0
17.08.2017 23:00:00 20,8 18,9 11 6 23 12 N 1019,5 15 0 0,0
17.08.2017 22:00:00 21,0 18,4 11 6 18 10 N 1019,4 - 0 0,0
17.08.2017 21:00:00 21,7 18,5 10 5 28 15 N 1019,5 - 42 0,0
17.08.2017 20:00:00 22,7 18,7 13 7 25 14 NNW 1019,6 15 60 0,0
17.08.2017 19:00:00 24,3 18,9 18 10 29 16 NW 1020,2 - 60 0,0
17.08.2017 18:00:00 25,8 19,2 14 8 20 11 W 1020,4 - 60 0,0
17.08.2017 17:00:00 25,8 19,0 10 6 20 11 W 1020,6 15 60 0,0
17.08.2017 16:00:00 24,8 18,3 11 6 18 10 W 1021,2 - 60 0,0
17.08.2017 15:00:00 25,1 19,0 11 6 22 12 SW 1021,7 - 60 0,0
17.08.2017 14:00:00 24,2 18,6 15 8 23 12 WSW 1021,9 20 60 0,0
17.08.2017 13:00:00 23,9 18,8 14 8 21 11 SSW 1022,1 - 60 0,0
17.08.2017 12:00:00 23,7 18,6 12 6 21 11 SSW 1022,0 - 60 0,0
17.08.2017 11:00:00 22,8 18,6 11 6 20 11 SSW 1022,0 20 60 0,0
17.08.2017 10:00:00 21,9 18,9 12 7 18 10 S 1021,9 - 60 0,0
17.08.2017 09:00:00 20,6 18,7 8 4 13 7 S 1021,7 - 60 0,0
17.08.2017 08:00:00 18,2 17,6 9 5 13 7 S 1021,2 15 35 0,0
17.08.2017 07:00:00 17,5 16,7 10 5 15 8 S 1021,1 - 0 0,0
17.08.2017 06:00:00 16,5 15,5 11 6 13 7 S 1020,9 - 0 0,0
17.08.2017 05:00:00 16,4 15,3 10 5 12 6 SSE 1020,9 15 0 0,0
17.08.2017 04:00:00 16,5 15,2 9 5 11 6 S 1021,2 - 0 0,0
17.08.2017 03:00:00 16,6 15,3 9 5 11 6 S 1021,4 - 0 0,0
17.08.2017 02:00:00 17,1 15,4 3 2 7 4 S 1021,7 15 0 0,0
17.08.2017 01:00:00 17,8 16,1 4 2 7 4 WSW 1022,2 - 0 0,0
17.08.2017 00:00:00 18,3 16,3 3 2 10 6 WSW 1022,5 - 0 0,0
16.08.2017 23:00:00 19,1 16,5 9 5 11 6 W 1022,9 15 0 0,0
16.08.2017 22:00:00 20,0 16,6 8 4 14 7 W 1022,6 - 0 0,0
16.08.2017 21:00:00 21,1 16,9 10 6 16 9 WNW 1022,6 - 23 0,0
16.08.2017 20:00:00 22,4 17,5 9 5 18 10 W 1022,3 20 60 0,0
16.08.2017 19:00:00 23,9 17,9 13 7 22 12 W 1022,4 - 60 0,0
16.08.2017 18:00:00 24,2 17,7 16 8 24 13 W 1022,5 - 60 0,0
16.08.2017 17:00:00 24,4 17,4 16 9 25 13 W 1022,5 20 60 0,0
16.08.2017 16:00:00 24,3 17,1 14 8 21 11 W 1022,6 - 60 0,0
16.08.2017 15:00:00 23,6 16,9 13 7 18 10 W 1022,5 - 60 0,0
16.08.2017 14:00:00 23,4 16,4 11 6 18 10 W 1022,6 20 60 0,0
16.08.2017 13:00:00 23,1 17,1 10 6 18 10 WSW 1022,9 - 60 0,0
16.08.2017 12:00:00 21,9 15,3 8 4 14 8 E 1022,9 - 60 0,0
16.08.2017 11:00:00 19,6 16,4 5 3 10 6 ENE 1022,7 20 2 0,0
16.08.2017 10:00:00 18,8 16,6 5 3 11 6 ENE 1022,5 - 0 0,0
16.08.2017 09:00:00 18,4 16,6 5 3 10 6 E 1022,3 - 0 0,0
16.08.2017 08:00:00 18,0 16,5 6 3 11 6 E 1022,0 12 0 0,0
16.08.2017 07:00:00 17,9 16,9 7 4 11 6 ENE 1021,3 - 0 0,0
16.08.2017 06:00:00 17,3 16,2 6 3 9 5 NE 1021,3 - 0 0,0
16.08.2017 05:00:00 17,3 16,3 5 3 11 6 E 1021,2 13 0 0,0
16.08.2017 04:00:00 16,8 15,3 6 3 10 6 E 1021,6 - 0 0,0
16.08.2017 03:00:00 17,2 15,4 2 1 11 6 ENE 1021,8 - 0 0,0
16.08.2017 02:00:00 18,1 15,9 6 3 22 12 NE 1022,0 13 0 0,0
16.08.2017 01:00:00 18,7 16,1 15 8 23 13 NNW 1022,1 - 0 0,0
16.08.2017 00:00:00 18,7 16,5 13 7 17 9 NW 1022,5 - 0 0,0
15.08.2017 23:00:00 18,6 16,2 11 6 17 9 NNW 1022,1 15 0 0,0
15.08.2017 22:00:00 19,0 16,2 13 7 20 11 NNW 1021,6 - 0 0,0
15.08.2017 21:00:00 19,9 16,5 12 6 15 8 NW 1021,2 - 47 0,0
15.08.2017 20:00:00 20,9 16,5 10 5 14 8 NW 1020,8 15 4 0,0
15.08.2017 19:00:00 21,5 17,3 8 4 18 10 NW 1020,6 - 0 0,0
15.08.2017 18:00:00 20,9 17,3 11 6 20 11 NNW 1020,8 - 0 0,0
15.08.2017 17:00:00 21,1 17,7 12 6 18 10 WNW 1020,4 15 0 0,2
15.08.2017 16:00:00 21,5 17,7 12 6 17 9 WNW 1020,4 12 0 0,0
15.08.2017 15:00:00 22,4 17,7 10 6 24 13 WNW 1020,1 - 2 0,0
15.08.2017 14:00:00 21,5 17,9 13 7 21 11 NW 1019,7 12 0 0,0
15.08.2017 13:00:00 21,9 17,9 14 7 21 11 WNW 1019,2 - 0 0,0
15.08.2017 12:00:00 21,3 18,3 13 7 16 9 W 1019,2 - 8 0,0
15.08.2017 11:00:00 21,5 18,9 7 4 18 10 WNW 1018,8 - 10 0,0
15.08.2017 10:00:00 20,3 18,6 14 7 22 12 W 1018,5 - 0 0,0
15.08.2017 09:00:00 19,7 18,4 19 10 25 13 W 1018,1 - 0 0,0
15.08.2017 08:00:00 19,8 18,6 22 12 32 18 WNW 1017,5 12 0 0,4
15.08.2017 07:00:00 20,0 18,5 18 10 26 14 W 1017,4 10 0 0,0
15.08.2017 06:00:00 19,9 18,6 15 8 21 11 WSW 1016,8 - 0 0,0
15.08.2017 05:00:00 19,9 18,7 14 8 24 13 W 1016,8 10 0 0,0
15.08.2017 04:00:00 20,0 18,8 19 10 35 19 W 1016,5 - 0 0,2
15.08.2017 03:00:00 20,6 19,4 16 9 42 23 WSW 1016,3 - 0 0,2
15.08.2017 02:00:00 20,7 18,5 20 11 54 29 WSW 1016,7 10 0 3,2
15.08.2017 01:00:00 21,6 20,2 20 11 55 30 SW 1016,7 - 0 0,0
15.08.2017 00:00:00 20,8 18,2 13 7 45 24 E 1014,0 - 0 3,9
14.08.2017 23:00:00 22,9 19,1 33 18 44 24 W 1014,8 10 0 0,4
14.08.2017 22:00:00 26,9 16,5 16 8 21 12 NW 1013,1 - 0 0,0
14.08.2017 21:00:00 28,0 15,3 13 7 22 12 NNW 1012,1 - 8 0,0
14.08.2017 20:00:00 29,8 15,5 13 7 18 10 NNW 1011,2 30 53 0,0
14.08.2017 19:00:00 30,8 17,8 11 6 23 13 NW 1011,5 - 60 0,0

tt = Température de l'air
td = dewpoint
ff = Vitesse du vent
fx = gusts
dd = Direction du vent
ppp = reduced air pressure
vv = visibility
sd = Ensoleillement
rr = Quantités de précipitations

stations d'obs. à proximité